Regional Weather Roundup
Issued by NWS

Home | Current Version | Previous Version | Text Only | Print | Product List | Glossary On
Versions: 1 2 3 4 5 6 7 8 9 10 11 12 13 14 15 16 17 18 19 20 21 22 23 24 25 26 27 28 29 30 31 32 33 34 35 36 37 38 39 40 41 42 43 44 45 46 47 48 49 50
332
ASUS44 KEWX 252212
RWRTX
SOUTH TEXAS REGIONAL WEATHER ROUNDUP
NATIONAL WEATHER SERVICE AUSTIN/SAN ANTONIO TX
500 PM CDT TUE JUL 25 2017

NOTE: "FAIR" INDICATED FEW OR NO CLOUDS BELOW 12,000 FEET WITH NO
SIGNIFICANT WEATHER AND/OR OBSTRUCTIONS TO VISIBILITY.

* - THESE STATIONS ARE NOT NWS OR FAA STATIONS...AND ARE NOT SUBJECT
    TO NWS AND FAA QUALITY CONTROL.

TXZ171-172-183>190-252300-
TEXAS HILL COUNTRY AND EDWARDS PLATEAU

CITY           SKY/WX    TMP DP  RH WIND       PRES   REMARKS
JUNCTION       SUNNY     94  66  39 S7        30.04F HX  97
*LLANO         SUNNY     97  70  41 SE6       30.05F HX 103
BURNET         MOSUNNY   94  63  35 S8G21     30.06F HX  95
*HORSESHOE BAY MOSUNNY   96  64  34 S6        30.03F HX  97
*KERRVILLE     MOSUNNY   92  70  47 S12       30.05F HX  98
*FREDERICKSBRG MOSUNNY   94  61  33 S6        30.06F HX  94
*ROCKSPRINGS   NOT AVBL
*BOERNE STAGE  MOSUNNY   93  64  38 S8        30.05F HX  95
*CASTROVILLE   SUNNY     98  61  29 S10G21    30.00F HX  98
HONDO          MOSUNNY  101  66  31 SE13G23   30.00F HX 105
*UVALDE        MOSUNNY   99  65  33 SE13G18   29.98F HX 102
DEL RIO        MOSUNNY   99  63  30 E13       29.95F HX 101
LAUGHLIN AFB   MOSUNNY   99  65  33 SE15      29.95F HX 102
CARRIZO SPRGS  MOSUNNY  102  64  29 SE10G17   29.93F HX 105
*EAGLE PASS    PTCLDY   104  61  24 SE12G17   29.94F HX 105
$$

TXZ173-191>194-202-209-217>225-228-252300-
CENTRAL AND SOUTH CENTRAL TEXAS

CITY           SKY/WX    TMP DP  RH WIND       PRES   REMARKS
GEORGETOWN     MOSUNNY   95  66  38 S12G18    30.00F HX  98
AUSTIN/BERGSTM MOSUNNY  100  66  32 SE13G21   30.00F HX 104
AUSTIN/MABRY   MOSUNNY   99  65  32 S6        30.02F HX 102
*AUSTIN/EXEC   SUNNY     99  66  34 SE8       30.02F HX 102
*LAGO VISTA    SUNNY     97  64  34 S10       30.05F HX  99
SAN MARCOS     MOSUNNY   99  64  32 SE12      30.02F HX 101
NEW BRAUNFELS  MOSUNNY   98  69  38 SE15G22   30.00F HX 104
RANDOLPH AFB   MOSUNNY   98  65  33 E15G21    30.00F HX 101
PT SAN ANTONIO MOSUNNY  100  66  33 SE14G21   29.98F HX 104
SAN ANTONIO    MOSUNNY   99  64  31 SE12G23   30.01F HX 101
STINSON FIELD  PTSUNNY  102  67  31 SE18G24   29.97F HX 107
*LA GRANGE     MOSUNNY  100  70  37 SE8       29.99F HX 106
*GIDDINGS      MOSUNNY   99  62  29 S13       30.02F HX 100
*GONZALES      PTSUNNY   94  72  47 SE12G21   30.00F HX 102
$$

TXZ163>164-176>182-195>201-210>213-226-227-235-252300-
SOUTHEAST TEXAS

CITY           SKY/WX    TMP DP  RH WIND       PRES   REMARKS
COLLEGE STN    PTSUNNY   98  71  41 S15G25    30.02F HX 106
*BRYAN         PTSUNNY   97  70  41 SE14      30.03F HX 104
*CALDWELL      NOT AVBL
*CROCKETT      SUNNY     93  73  52 SE5       30.08F HX 102
*BRENHAM       MOSUNNY   96  69  42 SE12      30.03F HX 101
HUNTSVILLE     MOSUNNY   95  67  39 VRB5      30.05F HX  99
CONROE         MOSUNNY   95  69  42 SE12      30.05F HX 100
HOUSTON BUSH   PTSUNNY   92  73  53 S14       30.05F HX 100
HOUSTON HOBBY  PTSUNNY   93  75  55 S10       30.05F HX 104
*HOUSTON SW AP MOSUNNY   89  77  68 SE7G16    30.06F HX 101
PEARLAND       MOSUNNY   93  75  55 SE12G18   30.07F HX 104
HOUSTON HOOKS  MOSUNNY   93  72  50 S7G18     30.04F HX 101
ELLINGTON FLD  PTSUNNY   91  75  59 S9        30.08F HX 102
SUGAR LAND     MOSUNNY   90  76  63 SE9       30.05F HX 101
*HOUSTON EXEC  PTSUNNY   93  75  55 S12       30.06F HX 104
*CLEVELAND MUN MOSUNNY   92  75  58 S8        30.07F HX 103
*WHARTON       MOSUNNY   91  70  49 SE12      30.06S HX  97
*COLUMBUS      FAIR      96  65  36 S14       30.05S HX  98
*EAGLE LAKE    CLEAR     96  74  48 S14       30.04F HX 106
$$

TXZ214>216-236>238-252300-
THE UPPER TEXAS COAST

CITY           SKY/WX    TMP DP  RH WIND       PRES   REMARKS
*ORANGE        CLOUDY    87  77  73 S6        30.10F HX  99
PORT ARTHUR    CLOUDY    87  76  69 S8        30.07F HX  97
GALVESTON      MOSUNNY   88  79  74 SE13      30.08F HX 103
ANGLETON       MOSUNNY   91  77  63 S15       30.06F HX 104
*BAY CITY      SUNNY     91  75  58 SE12      30.06S HX 102
PALACIOS       SUNNY     88  76  67 SE13      30.05F HX  99
$$

TXZ229>234-239>247-252300-
TEXAS COASTAL BEND AND RIO GRANDE PLAINS

CITY           SKY/WX    TMP DP  RH WIND       PRES   REMARKS
VICTORIA       MOSUNNY   94  71  47 S18G26    30.03F HX 101
*BEEVILLE      MOSUNNY   96  71  44 SE14G23   30.01S HX 103
ROCKPORT       MOSUNNY   90  76  63 SE15G21   30.03F HX 101
*PORT ARANSAS  SUNNY     89  77  67 SE13G20   30.04S HX 102
*PORT LAVACA   MOSUNNY   90  74  58 SE14      30.05S HX  99
*INGLESIDE     MOSUNNY   90  77  64 MISG      30.03F HX 103
CORPUS CHRISTI PTSUNNY   92  75  57 SE15G24   30.02F HX 103
CORPUS NAS     PTSUNNY   92  79  65 SE20G26   30.03F HX 108
*ROBSTOWN      MOSUNNY   94  74  52 SE17G23   30.01F HX 103
ALICE          PTSUNNY   92  73  53 S21       30.01R THUNDER HX 100
KINGSVILLE NAS PTSUNNY   92  76  59 SE21G28   30.01S THUNDER HX 104
COTULLA        MOSUNNY  101  62  27 S10G25    29.94F HX 102
*FAITH RANCH   SUNNY    104  63  25 S12G22    29.94F HX 106
LAREDO         MOSUNNY  102  69  34 SE17      29.93F HX 109
$$

TXZ248>255-252300-
DEEP SOUTH TEXAS

CITY           SKY/WX    TMP DP  RH WIND       PRES   REMARKS
BROWNSVILLE    RAIN      80  75  84 S17       30.05R
PORT ISABEL    PTSUNNY   92  78  63 SE28G36   30.02S HX 107
*SOUTH PADRE   NOT AVBL
HARLINGEN      MOSUNNY   96  73  47 SE25G32   29.99F HX 105
*HEBBRONVILLE  CLOUDY    88  69  53 E33       30.01R THUNDER HAZE
MCALLEN        MOSUNNY   98  69  38 SE20G35   29.98S HX 104
*WESLACO       SUNNY     97  70  41 S18G26    29.98F HX 103
FALFURRIAS     MOSUNNY   89  78  69 SE8       30.00R HX 104
EDINBURG       MOSUNNY  100  64  30 SE21G26   29.98F HX 103
*ZAPATA        MOSUNNY  100  64  30 SE16G32   29.92F HX 103
$$

TXZ213>215-236>238-242>244-246-247-251-254-255-252300-
CMAN STATIONS

STATION/POSITION TIME  TEMP    WIND        PRES    WAVE
                       AIR SEA DIR/SP/G            HT/PER
                 (UTC) (F)     (DEG/KT/KT) (MB)    (FT/S)
SABINE PASS      2142   87 88  160/  7/ 12 1020.3
SEA RIM ST PARK  2100   87     170/  7/  9 1019.8
NORTH JETTY/GLS  2142      85  140/  9/ 10 1018.2
EAGLE POINT      2142   86 87  140/ 12/ 13 1018.5
MORGANS POINT    2142   87 88  120/ 10/ 14 1018.3
MISSION/ARANSAS  2100          130/ 13     1018.0
PORT O`CONNOR    2136   86     150/ 13/ 15 1017.1
PORT ARANSAS     2100   85 87  130/ 14/ 16 1017.7
MALAQUITE BEACH  2136   85 87  120/ 15/ 17 1016.4
BAFFIN BAY       2136   87 90              1016.8
PORT ISABEL      2136   87 86              1017.1
$$

GMZ080-GMZ150>470-252300-
OFFSHORE BUOY REPORTS

STATION/POSITION TIME  TEMP    WIND        PRES    WAVE
                       AIR SEA DIR/SP/G            HT/PER
                 (UTC) (F)     (DEG/KT/KT) (MB)    (FT/S)
20 E GALVESTON   2150   86 87  150/  8/ 10 1018.6    2/ 6
90 E PT ARANSAS  2150   86 87  140/ 10/ 12 1017.9    3/ 6
35 NE PT MANSFLD 2150   85     150/ 14/ 16 1016.2    3/ 5
200 E PT ISABEL  2150   87 88  130/ 14/ 17 1018.5    3/ 6
$$




USA.gov is the U.S. government's official web portal to all federal, state and local government web resources and services.